When you browse on this site, cookies collect data to enhance your experience and personalize the content and advertising you see.
Visit our Privacy Policy to learn more. By continuing to use the site, you agree to this use of cookies and data.
  • In Hungary
  • List of Countries
  • For 7 days
  • Water Temperature
  • Weather Map
  • News
  • Weather Widgets
  • user-avatar
    Login

    Hourly Weather Myrnohrad (Dymytrov)

    Today, 21 November, Thursday

    Time Temperature Precipitation Wind Pressure Humidity
    00:00 -6°C° 0 mm 7 mps 758 mmHg 68%
    01:00 -6°C° 0 mm 7 mps 758 mmHg 67%
    02:00 -7°C° 0 mm 7 mps 759 mmHg 68%
    03:00 -8°C° 0 mm 7 mps 759 mmHg 66%
    04:00 -8°C° 0 mm 7 mps 759 mmHg 64%
    05:00 -10°C° 0 mm 8 mps 759 mmHg 62%
    06:00 -11°C° 0 mm 8 mps 760 mmHg 59%
    07:00 -11°C° 0 mm 8 mps 760 mmHg 56%
    08:00 -11°C° 0 mm 8 mps 761 mmHg 55%
    09:00 -11°C° 0 mm 8 mps 761 mmHg 50%
    10:00 -10°C° 0 mm 8 mps 761 mmHg 45%
    11:00 -9°C° 0 mm 9 mps 761 mmHg 40%
    12:00 -8°C° 0 mm 8 mps 760 mmHg 38%
    13:00 -8°C° 0 mm 8 mps 760 mmHg 36%
    14:00 -8°C° 0 mm 8 mps 760 mmHg 35%
    15:00 -10°C° 0 mm 8 mps 760 mmHg 32%
    16:00 -9°C° 0 mm 7 mps 760 mmHg 30%
    17:00 -11°C° 0 mm 7 mps 760 mmHg 28%
    18:00 -11°C° 0 mm 7 mps 761 mmHg 29%
    19:00 -12°C° 0 mm 7 mps 761 mmHg 30%
    20:00 -12°C° 0 mm 7 mps 761 mmHg 31%
    21:00 -12°C° 0 mm 7 mps 761 mmHg 32%
    22:00 -12°C° 0 mm 7 mps 761 mmHg 34%
    23:00 -13°C° 0 mm 8 mps 761 mmHg 36%

    Tomorrow, 22 November, Friday

    Time Temperature Precipitation Wind Pressure Humidity
    00:00 -13°C° 0 mm 7 mps 761 mmHg 38%
    01:00 -13°C° 0 mm 7 mps 761 mmHg 40%
    02:00 -13°C° 0 mm 7 mps 761 mmHg 42%
    03:00 -13°C° 0 mm 7 mps 761 mmHg 45%
    04:00 -13°C° 0 mm 7 mps 760 mmHg 48%
    05:00 -13°C° 0 mm 7 mps 760 mmHg 51%
    06:00 -13°C° 0 mm 8 mps 760 mmHg 49%
    07:00 -13°C° 0 mm 8 mps 760 mmHg 48%
    08:00 -12°C° 0 mm 8 mps 760 mmHg 47%
    09:00 -11°C° 0 mm 8 mps 760 mmHg 43%
    10:00 -10°C° 0 mm 8 mps 760 mmHg 38%
    11:00 -7°C° 0 mm 8 mps 760 mmHg 33%
    12:00 -7°C° 0 mm 8 mps 760 mmHg 32%
    13:00 -7°C° 0 mm 8 mps 759 mmHg 32%
    14:00 -6°C° 0 mm 8 mps 759 mmHg 31%
    15:00 -7°C° 0 mm 8 mps 759 mmHg 33%
    16:00 -8°C° 0 mm 7 mps 759 mmHg 35%
    17:00 -9°C° 0 mm 7 mps 758 mmHg 36%
    18:00 -9°C° 0 mm 7 mps 759 mmHg 37%
    19:00 -9°C° 0 mm 7 mps 759 mmHg 37%
    20:00 -11°C° 0 mm 7 mps 759 mmHg 37%
    21:00 -11°C° 0 mm 7 mps 759 mmHg 38%
    22:00 -11°C° 0 mm 7 mps 758 mmHg 39%
    23:00 -11°C° 0 mm 7 mps 758 mmHg 39%

    Day after tomorrow, 23 November, Saturday

    Time Temperature Precipitation Wind Pressure Humidity
    00:00 -10°C° 0 mm 6 mps 758 mmHg 40%
    01:00 -10°C° 0 mm 6 mps 758 mmHg 41%
    02:00 -11°C° 0 mm 6 mps 758 mmHg 43%
    03:00 -11°C° 0 mm 6 mps 758 mmHg 43%
    04:00 -12°C° 0 mm 7 mps 757 mmHg 43%
    05:00 -12°C° 0 mm 7 mps 757 mmHg 44%
    06:00 -12°C° 0 mm 7 mps 757 mmHg 43%
    07:00 -11°C° 0 mm 7 mps 758 mmHg 41%
    08:00 -11°C° 0 mm 7 mps 758 mmHg 40%
    09:00 -8°C° 0 mm 7 mps 757 mmHg 35%
    10:00 -7°C° 0 mm 8 mps 757 mmHg 31%
    11:00 -5°C° 0 mm 8 mps 757 mmHg 26%
    12:00 -5°C° 0 mm 8 mps 757 mmHg 25%
    13:00 -4°C° 0 mm 8 mps 756 mmHg 24%
    14:00 -4°C° 0 mm 8 mps 756 mmHg 23%
    15:00 -4°C° 0 mm 7 mps 756 mmHg 26%
    16:00 -6°C° 0 mm 7 mps 756 mmHg 28%
    17:00 -7°C° 0 mm 7 mps 756 mmHg 31%
    18:00 -7°C° 0 mm 7 mps 756 mmHg 31%
    19:00 -7°C° 0 mm 7 mps 756 mmHg 32%
    20:00 -7°C° 0 mm 7 mps 756 mmHg 32%
    21:00 -8°C° 0 mm 6 mps 756 mmHg 33%
    22:00 -8°C° 0 mm 6 mps 756 mmHg 33%
    23:00 -8°C° 0 mm 6 mps 756 mmHg 34%

    24 November, Sunday

    Time Temperature Precipitation Wind Pressure Humidity
    00:00 -8°C° 0 mm 6 mps 756 mmHg 35%
    01:00 -8°C° 0 mm 6 mps 755 mmHg 37%
    02:00 -9°C° 0 mm 6 mps 755 mmHg 38%
    03:00 -9°C° 0 mm 6 mps 755 mmHg 41%
    04:00 -9°C° 0 mm 6 mps 755 mmHg 44%
    05:00 -9°C° 0 mm 6 mps 755 mmHg 47%
    06:00 -8°C° 0 mm 7 mps 755 mmHg 48%
    07:00 -8°C° 0 mm 7 mps 755 mmHg 49%
    08:00 -8°C° 0 mm 7 mps 755 mmHg 51%
    09:00 -6°C° 0 mm 7 mps 755 mmHg 48%
    10:00 -4°C° 0 mm 7 mps 754 mmHg 45%
    11:00 -2°C° 0 mm 7 mps 754 mmHg 41%
    12:00 -2°C° 0 mm 7 mps 754 mmHg 40%
    13:00 -1°C° 0 mm 7 mps 754 mmHg 38%
    14:00 -1°C° 0 mm 7 mps 753 mmHg 37%
    15:00 -2°C° 0 mm 6 mps 753 mmHg 39%
    16:00 -3°C° 0 mm 6 mps 753 mmHg 42%
    17:00 -5°C° 0 mm 5 mps 753 mmHg 44%
    18:00 -5°C° 0 mm 5 mps 753 mmHg 46%
    19:00 -5°C° 0 mm 6 mps 753 mmHg 47%
    20:00 -5°C° 0 mm 6 mps 753 mmHg 48%
    21:00 -6°C° 0 mm 6 mps 753 mmHg 51%
    22:00 -6°C° 0 mm 5 mps 753 mmHg 54%
    23:00 -6°C° 0 mm 5 mps 753 mmHg 57%

    25 November, Monday

    Time Temperature Precipitation Wind Pressure Humidity
    00:00 -6°C° 0 mm 5 mps 753 mmHg 60%
    01:00 -6°C° 0 mm 5 mps 753 mmHg 64%
    02:00 -6°C° 0 mm 5 mps 753 mmHg 67%
    03:00 -6°C° 0 mm 5 mps 753 mmHg 68%
    04:00 -6°C° 0 mm 5 mps 753 mmHg 69%
    05:00 -6°C° 0 mm 5 mps 752 mmHg 70%
    06:00 -6°C° 0 mm 5 mps 752 mmHg 71%
    07:00 -5°C° 0 mm 6 mps 752 mmHg 71%
    08:00 -5°C° 0 mm 6 mps 752 mmHg 71%
    09:00 -4°C° 0 mm 6 mps 752 mmHg 67%
    10:00 -2°C° 0 mm 7 mps 752 mmHg 63%
    11:00 0°C° 0 mm 7 mps 752 mmHg 60%
    12:00 0°C° 0 mm 7 mps 752 mmHg 59%
    13:00 0°C° 0 mm 7 mps 751 mmHg 58%
    14:00 +2°C° 0 mm 6 mps 751 mmHg 58%
    15:00 -1°C° 0 mm 6 mps 751 mmHg 62%
    16:00 -1°C° 0 mm 5 mps 751 mmHg 65%
    17:00 -2°C° 0 mm 4 mps 751 mmHg 69%
    18:00 -2°C° 0 mm 5 mps 751 mmHg 69%
    19:00 -4°C° 0 mm 5 mps 751 mmHg 68%
    20:00 -4°C° 0 mm 5 mps 751 mmHg 68%
    21:00 -4°C° 0 mm 5 mps 750 mmHg 69%
    22:00 -5°C° 0 mm 5 mps 750 mmHg 70%
    23:00 -5°C° 0 mm 5 mps 750 mmHg 70%

    26 November, Tuesday

    Time Temperature Precipitation Wind Pressure Humidity
    00:00 -4°C° 0 mm 4 mps 750 mmHg 70%
    01:00 -4°C° 0 mm 4 mps 750 mmHg 70%
    02:00 -5°C° 0 mm 4 mps 749 mmHg 69%
    03:00 -5°C° 0 mm 4 mps 749 mmHg 70%
    04:00 -5°C° 0 mm 4 mps 749 mmHg 70%
    05:00 -5°C° 0 mm 4 mps 749 mmHg 70%
    06:00 -6°C° 0 mm 5 mps 749 mmHg 72%
    07:00 -6°C° 0 mm 5 mps 749 mmHg 73%
    08:00 -5°C° 0 mm 5 mps 749 mmHg 75%
    09:00 -4°C° 0 mm 5 mps 748 mmHg 71%
    10:00 -2°C° 0 mm 5 mps 748 mmHg 67%
    11:00 -1°C° 0 mm 6 mps 748 mmHg 64%
    12:00 0°C° 0 mm 5 mps 748 mmHg 64%
    13:00 0°C° 0 mm 5 mps 747 mmHg 64%
    14:00 0°C° 0 mm 5 mps 747 mmHg 64%
    15:00 0°C° 0 mm 5 mps 747 mmHg 69%
    16:00 0°C° 0 mm 5 mps 747 mmHg 75%
    17:00 -1°C° 0 mm 4 mps 747 mmHg 80%
    18:00 0°C° 0 mm 5 mps 747 mmHg 80%
    19:00 0°C° 0 mm 5 mps 747 mmHg 81%
    20:00 0°C° 0 mm 5 mps 747 mmHg 82%
    21:00 -1°C° 0 mm 5 mps 747 mmHg 83%
    22:00 -1°C° 0 mm 4 mps 747 mmHg 84%
    23:00 -2°C° 0 mm 4 mps 747 mmHg 85%
    Show more